Location: Arlington
(40.6323°N, 74.1651°W)
Time: 14:48:53
(UTC+00:00)

NOAA 11 - Pass Details

Date: 27 February 2020
Orbit: 834 x 849 km, 98.4° (Epoch: 09 April)

Event Time Altitude Azimuth Distance (km) Brightness Sun altitude
Rises 23:04:57 0° 152° (SSE) 3,378 7.1 -4.5°
Reaches altitude 10° 23:07:21 10° 148° (SSE) 2,445 6.4 -5.0°
Maximum altitude 23:12:37 55° 72° (ENE) 996 4.3 -6.0°
Drops below altitude 10° 23:17:55 10° 356° (N) 2,454 6.6 -7.0°
Sets 23:20:19 0° 352° (N) 3,391 7.4 -7.4°
